DELTA 1 DEB, 14529

Orbit data source: Space-Track

DELTA 1 DEB, 14529 is space debris in LEO originally from a launch on Thu, 14 Jul 1977 UTC launched from the Air Force Eastern Test Range (AFETR). Debris objects in space refer to the collection of defunct objects orbiting the Earth. Examples of debris include non-operational satellites, rocket bodies, and fragments generated from explosions, collisions, or faulty payload assembly.

Loading next visibility...
Identifier
14529, 1977-065FQ
Orbit
LEO
Country
Flag of USUS
Related business
Manufacturer
Unknown
Mission
Spacecraft
Bus & Motor
Unknown
Mass
Unknown
Launch date (UTC)
1977-07-14 (49 years ago)
Launch vehicle
Unknown
Launch site
Air Force Eastern Test Range (AFETR)
Object type
Payload
Rocket body
Debris
Shape & HBR
Unknown shape, 0.1 m
Radar Cross Section
Medium (>0.1 m² and <1 m²)

Expand to show TLE details & history
Last TLE update: 2 months ago

TLE from 2 months ago
0 DELTA 1 DEB
1 14529U 77065FQ  26195.28594492  .00000343  00000-0  85763-3 0  9994
2 14529  29.0302  88.8860 0626155 201.6028 155.6944 12.51930349493569
Epoch: 2026-07-14T06:51Z
TLE epoch observation values (Epoch: 2026-07-14T06:51:45.641Z)
Latitude
-0.00001°
Longitude
53.78753°
Altitude
1,906.699 km
Speed
6.737 km/s
True Right ascension
05h 55m 32s
True Declination
0° 00' 00"
Sunlit
Object was in daylight at epoch
Visualization orbit readout
Latitude
Unknown
Longitude
Unknown
Altitude
Unknown
Speed
Unknown
Apparent Right ascension
Unknown
Apparent Declination
Unknown
Sunlit
N/A
Visualization observer readout
Local Sidereal Time
03:48:09
Azimuth
Unknown
Elevation
Unknown
Doppler factor
Unknown
Orbital elements
Apogee altitude
1,950.889 km
Perigee altitude
969.3 km
Semi-major axis
7,838.231 km
Eccentricity
0.06262
Inclination
29.0302°
RAAN
88.886°
Arg. of periapsis
201.6028°
True anomaly
158.44958°
Mean anomaly
155.6944°
Eccentric anomaly
157.09094°
Mean motion
3.12763 °/min
Orbital period
115.1 mins
BSTAR
0.00085763
Loading maneuver chart data...
Computing Atmospheric mass density...
Loading historical data...
Loading historical data...
Loading historical data...
Loading historical data...
Loading historical data...
Loading historical data...
Loading historical data...

Documentation

Showing up to 5 results
|